Regional Weather Roundup
Issued by NWS

Home | Current Version | Previous Version | Text Only | Print | Product List | Glossary On
Versions: 1 2 3 4 5 6 7 8 9 10 11 12 13 14 15 16 17 18 19 20 21 22 23 24 25 26 27 28 29 30 31 32 33 34 35 36 37 38 39 40 41 42 43 44 45 46 47 48 49 50
000
ASUS45 KBOU 230707
RWRCO

WEATHER ROUNDUP FOR COLORADO
NATIONAL WEATHER SERVICE DENVER/BOULDER CO
1200 AM MST THU FEB 23 2017

NOTE: "FAIR" INDICATES FEW OR NO CLOUDS BELOW 12000 FEET WITH NO
SIGNIFICANT WEATHER AND/OR OBSTRUCTIONS TO VISIBILITY.

COZ001>005-013-030-031-230800-
...NORTHWEST COLORADO...

CITY           SKY/WX    TMP DP  RH WIND       PRES   REMARKS
CRAIG          FAIR      29  25  85 E5        29.56F WCI  24
HAYDEN         MOCLDY    28  25  86 CALM      29.56F
MEEKER         LGT SNOW  31  28  89 N9        29.56S FOG     WCI  23
MOUNT WERNER   NOT AVBL
STEAMBOAT SPGS CLOUDY    27  27  97 W3        29.55F
WALDEN         NOT AVBL
$$

COZ006>008-011-230800-
...WEST CENTRAL VALLEYS...

CITY           SKY/WX    TMP DP  RH WIND       PRES   REMARKS
GRAND JUNCTION FAIR      51  18  27 SW14      29.51F
MONTROSE       FAIR      48  15  26 SW13      29.62S
EAGLE          MOCLDY    47  16  29 SW23G40   29.56F
RIFLE          FAIR      51  16  24 SW18G35   29.51F
DELTA          FAIR      51  22  32 SW14G23   29.58F
NUCLA          FAIR      45  21  39 S23G30    29.65F
$$

COZ017>023-064>068-230800-
...SOUTHWEST COLORADO...

CITY           SKY/WX    TMP DP  RH WIND       PRES   REMARKS
DURANGO        FAIR      39  17  41 W3        29.73F
CORTEZ         FAIR      41  20  43 SW13      29.71R
PAGOSA SPRINGS FAIR      40  18  41 SE3       29.76F
TELLURIDE      FAIR      36   7  30 S12G35    29.71F
WOLF CREEK PAS CLOUDY    21  14  73 S32G47    29.78F WCI   2
$$

COZ009-010-012-014-032>034-037-058>063-230800-
...CENTRAL COLORADO...

CITY           SKY/WX    TMP DP  RH WIND       PRES   REMARKS
ASPEN          FAIR      40  17  39 SW12      29.58F
BUENA VISTA    FAIR      35  21  56 S10       29.64F WCI  27
COPPER MTN     CLOUDY    28  12  50 MISG      29.67F
BERTHOUD PASS  HAZE      12   3  67 SE32G39   29.68F VSB<1/4 WCI -10
COTTONWOOD PAS FAIR      36   5  27 S14G21    29.67F
GUNNISON       FAIR      25  20  81 NE3       29.65F
KREMMLING      MOCLDY    37  30  75 S5        29.58F
LEADVILLE      CLOUDY    29  13  51 S10       29.63F WCI  20
MONARCH PASS   FAIR      23   9  54 SW35G48   29.81F WCI   4
SALIDA         FAIR      42  20  41 S12G20    29.73F
SUNLIGHT       NOT AVBL
WILKERSON PASS MOCLDY    23  14  68 SW12G24   29.74F WCI  12
$$

COZ069>075-230800-
...SAN LUIS VALLEY/SANGRE DE CRISTO MOUNTAINS...

CITY           SKY/WX    TMP DP  RH WIND       PRES   REMARKS
ALAMOSA        FAIR      39  22  50 SW15G23   29.74F
LA VETA PASS   MOCLDY    32  18  55 NE25G46   29.77F WCI  19
SAGUACHE       FAIR      28  21  74 SW3       29.71F
$$

COZ035-036-038>040-230800-
...NORTHERN COLORADO FRONT RANGE...

CITY           SKY/WX    TMP DP  RH WIND       PRES   REMARKS
DENVER INTL AP FAIR      33  24  69 NW8       29.73F WCI  26
DMNS CITY PARK   N/A     34  24  64 N2        29.72F
AURORA         NOT AVBL
FRONT RANGE AP FAIR      28  21  74 NW8       29.73F WCI  20
ERIE MUNI ARPT FAIR      31  24  75 CALM      29.74F
BOULDER MUN AP FAIR      36  27  69 CALM      29.72F
CENTENNIAL     FAIR      32  23  69 N6        29.72F WCI  26
BROOMFIELD     FAIR      32  27  80 NW3       29.73F
FORT COLLINS   FAIR      35  27  72 N3        29.74F
LONGMONT       MOCLDY    34  26  72 CALM      29.75F
$$

COZ041-046-047-076>085-087-088-230800-
...PIKES PEAK/PALMER DIVIDE AND SOUTHERN FOOTHILLS...

CITY           SKY/WX    TMP DP  RH WIND       PRES   REMARKS
COLO. SPRINGS  FAIR      37  15  40 N16G25    29.67F
A. F. ACADEMY  FAIR      31  15  51 N14       29.68F WCI  21
SCHRIEVER AFB  FAIR      34  15  45 N14G21    29.67F WCI  25
ELLICOTT       FAIR     N/A N/A N/A N7        29.66F
FALCON         FAIR      32  14  47 N15G22    29.68F WCI  22
FORT CARSON    FAIR      39  15  37 N16       29.65F
LIMON          FAIR      29  16  58 NW9       29.67F WCI  20
MONUMENT HILL  FAIR      23  16  74 NW12      29.72F WCI  12
TRINIDAD       FAIR      47  27  45 W13       29.72F
$$

COZ042>045-048>051-090-091-230800-
...NORTHEAST COLORADO...

CITY           SKY/WX    TMP DP  RH WIND       PRES   REMARKS
GREELEY ARPT   FAIR      29  22  75 NW7       29.75F WCI  22
AKRON          FAIR      33  17  51 NE15      29.69F WCI  23
BURLINGTON     FAIR      47  22  37 E12       29.66F
WRAY           NOT AVBL
STERLING       FAIR      36  23  60 NE9       29.72S
HOLYOKE        FAIR      37  32  81 NE17      29.74R
FORT MORGAN    FAIR      33  20  59 N14G22    29.72F WCI  23
$$

COZ086-089-092>099-230800-
...SOUTHEAST COLORADO...

CITY           SKY/WX    TMP DP  RH WIND       PRES   REMARKS
PUEBLO         FAIR      44  18  35 N20G29    29.63F
LA JUNTA       FAIR      54  25  32 SW14      29.62F
LAMAR          FAIR      45  25  45 NE3       29.60F
SPRINGFIELD      N/A     56  24  29 W10       29.65F
$$



USA.gov is the U.S. government's official web portal to all federal, state and local government web resources and services.